Sault Ste Marie, MI

6:24 PM EDT on May 24, 2018 (GMT -0400)
Sault Ste Marie Municipal / Sanderson Field

Weather History for KANJ - March, 2013

Change the Weather History Date:

Wednesday, March 20, 2013

  Actual Average Record
Temperature  
Mean Temperature 23 °F 28 °F  
Max Temperature 30 °F 36 °F 69 °F (2012)
Min Temperature 15 °F 19 °F -15 °F (1923)
Degree Days  
Heating Degree Days 42 37  
Month to date heating degree days 840 818  
Since 1 July heating degree days 6572 6944  
Cooling Degree Days 0 0  
Month to date cooling degree days 0 0  
Year to date cooling degree days 0 0  
Moisture  
Dew Point 19 °F    
Average Humidity 79    
Maximum Humidity 84    
Minimum Humidity 74    
Precipitation  
Precipitation 0.05 in 0.06 in 1.10 in (1921)
Month to date precipitation 2.29 1.17  
Year to date precipitation 8.38 4.70  
Snow  
Snow 1.00 in 0.30 in 5.80 in (1939)
Month to date snowfall 18.0 9.5  
Since 1 July snowfall 138.8 109.7  
Snow Depth 30.00 in    
Sea Level Pressure  
Sea Level Pressure 29.71 in    
Wind  
Wind Speed 13 mph (West)    
Max Wind Speed 23 mph    
Max Gust Speed 29 mph    
Visibility 5 miles    
Events Fog , Snow    
T = Trace of Precipitation, MM = Missing Value Source: NWS Daily Summary

Daily Weather History Graph

Daily Weather History Graph

Search for Another Location

Airport or City:

Astronomy

Mar. 20, 2013 Rise Set
Actual Time 7:39 AM EDT 7:50 PM EDT
Civil Twilight 7:09 AM EDT 8:20 PM EDT
Nautical Twilight 6:34 AM EDT 8:56 PM EDT
Astronomical Twilight 5:58 AM EDT 9:32 PM EDT
Moon 1:05 PM EDT (3/20) 3:38 AM EDT (3/20)
Length of Visible Light 13h 10m
Length of Day
12h 10m
First Quarter, 59% of the Moon is Illuminated
Mar 20
First Quarter
Mar 27
Full
Apr 3
Last Quarter
Apr 10
New
Apr 18
First Quarter

Hourly Weather History & Observations

Time (EDT) Temp. Windchill Dew Point Humidity Pressure Visibility Wind Dir Wind Speed Gust Speed Precip Events Conditions
12:55 AM 21.9 °F 8.7 °F 17.1 °F 82% 29.72 in 10.0 mi West 15.0 mph - 0.00 in   Scattered Clouds
1:25 AM 21.0 °F 8.6 °F 17.1 °F 85% 29.70 in 9.0 mi West 12.7 mph - 0.00 in Snow Light Snow
1:55 AM 21.0 °F 7.6 °F 17.1 °F 85% 29.72 in 10.0 mi West 15.0 mph 23.0 mph 0.00 in   Mostly Cloudy
2:55 AM 19.9 °F 7.9 °F 15.1 °F 81% 29.73 in 10.0 mi WSW 11.5 mph - 0.00 in   Mostly Cloudy
3:22 AM 19.9 °F 6.2 °F 15.1 °F 81% 29.69 in 9.0 mi WSW 15.0 mph - 0.00 in Snow Light Snow
3:55 AM 19.9 °F 6.2 °F 15.1 °F 81% 29.73 in 7.0 mi WSW 15.0 mph - 0.00 in Snow Light Snow
4:14 AM 19.9 °F 6.7 °F 15.1 °F 81% 29.71 in 2.5 mi WSW 13.8 mph - 0.00 in Snow Light Snow
4:23 AM 19.0 °F 5.6 °F 14.0 °F 81% 29.70 in 3.0 mi WSW 13.8 mph - 0.00 in Snow Light Snow
4:55 AM 19.0 °F 5.6 °F 14.0 °F 81% 29.73 in 9.0 mi WSW 13.8 mph - 0.00 in   Mostly Cloudy
5:34 AM 18.0 °F 4.8 °F 12.9 °F 81% 29.70 in 10.0 mi WSW 12.7 mph - 0.00 in   Mostly Cloudy
5:55 AM 18.0 °F 3.6 °F 12.0 °F 78% 29.73 in 10.0 mi WSW 15.0 mph - 0.00 in   Partly Cloudy
6:55 AM 18.0 °F 4.8 °F 12.0 °F 78% 29.73 in 10.0 mi WSW 12.7 mph - 0.00 in   Mostly Cloudy
7:55 AM 16.0 °F 4.4 °F 10.9 °F 81% 29.73 in 10.0 mi SW 9.2 mph - N/A   Partly Cloudy
8:55 AM 17.1 °F 3.0 °F 12.0 °F 81% 29.73 in 10.0 mi WSW 13.8 mph - N/A   Partly Cloudy
9:32 AM 19.0 °F 5.6 °F 12.0 °F 74% 29.68 in 9.0 mi SW 13.8 mph - 0.00 in Snow Light Snow
9:55 AM 19.9 °F 7.3 °F 12.9 °F 74% 29.71 in 7.0 mi SW 12.7 mph - 0.00 in Snow Light Snow
10:27 AM 23.0 °F 10.6 °F 15.1 °F 72% 29.69 in 10.0 mi WSW 13.8 mph - 0.00 in   Overcast
10:55 AM 24.1 °F 10.1 °F 16.0 °F 71% 29.71 in 3.0 mi WSW 18.4 mph 23.0 mph 0.00 in Snow Light Snow
11:09 AM 24.1 °F 11.0 °F 16.0 °F 71% 29.68 in 2.0 mi WSW 16.1 mph 26.5 mph 0.00 in Snow Light Snow
11:18 AM 24.1 °F 11.0 °F 17.1 °F 75% 29.69 in 2.5 mi WSW 16.1 mph 25.3 mph 0.00 in Snow Light Snow
11:26 AM 24.1 °F 11.0 °F 17.1 °F 75% 29.68 in 4.0 mi WSW 16.1 mph 25.3 mph 0.00 in Snow Light Snow
11:55 AM 25.0 °F 12.2 °F 17.1 °F 72% 29.71 in 2.0 mi WSW 16.1 mph 23.0 mph 0.00 in Snow Light Snow
12:03 PM 25.0 °F 12.2 °F 18.0 °F 75% 29.68 in 1.5 mi WSW 16.1 mph 21.9 mph 0.01 in Snow Light Snow
12:15 PM 25.0 °F 11.7 °F 19.0 °F 78% 29.67 in 0.5 mi WSW 17.3 mph 26.5 mph 0.01 in Snow Snow
12:55 PM 28.0 °F 14.3 °F 21.0 °F 75% 29.70 in 1.0 mi West 21.9 mph 28.8 mph 0.01 in Snow Light Snow
1:14 PM 28.0 °F 17.0 °F 21.9 °F 78% 29.68 in 0.8 mi West 13.8 mph - 0.00 in Snow Light Snow
1:23 PM 28.9 °F 16.9 °F 21.9 °F 75% 29.67 in 1.0 mi West 17.3 mph 26.5 mph 0.01 in Snow Light Snow
1:30 PM 28.0 °F 14.9 °F 21.0 °F 75% 29.68 in 2.0 mi West 19.6 mph 29.9 mph 0.01 in Snow Light Snow
1:34 PM 27.0 °F 14.3 °F 21.0 °F 78% 29.68 in 0.8 mi West 17.3 mph 29.9 mph 0.01 in Snow Light Snow
1:55 PM 27.0 °F 13.2 °F 23.0 °F 85% 29.70 in 0.2 mi West 20.7 mph 27.6 mph 0.02 in Fog , Snow Heavy Snow
2:20 PM 28.0 °F 15.3 °F 23.0 °F 81% 29.68 in 0.8 mi West 18.4 mph 24.2 mph 0.01 in Snow Light Snow
2:27 PM 28.0 °F 17.5 °F 23.0 °F 81% 29.68 in 1.0 mi West 12.7 mph 24.2 mph 0.01 in Snow Light Snow
2:34 PM 28.0 °F 17.0 °F 23.0 °F 81% 29.68 in 1.5 mi West 13.8 mph 23.0 mph 0.01 in Snow Light Snow
2:38 PM 30.0 °F 18.7 °F 24.1 °F 79% 29.68 in 2.5 mi West 16.1 mph 25.3 mph 0.01 in Snow Light Snow
2:45 PM 30.0 °F 19.5 °F 24.1 °F 79% 29.68 in 7.0 mi West 13.8 mph 25.3 mph 0.01 in Snow Light Snow
2:55 PM 28.9 °F 17.3 °F 23.0 °F 78% 29.71 in 5.0 mi West 16.1 mph 20.7 mph 0.01 in Snow Light Snow
3:00 PM 28.9 °F 18.2 °F 23.0 °F 78% 29.68 in 5.0 mi West 13.8 mph 20.7 mph 0.00 in Snow Light Snow
3:39 PM 28.9 °F 18.2 °F 21.9 °F 75% 29.68 in 1.8 mi West 13.8 mph 20.7 mph 0.00 in Snow Light Snow
3:51 PM 28.4 °F 18.0 °F 23.0 °F 80% 29.68 in 0.8 mi West 12.7 mph - 0.00 in Snow Light Snow
3:55 PM 28.0 °F 17.5 °F 23.0 °F 81% 29.71 in 1.0 mi West 12.7 mph - 0.00 in Snow Light Snow
4:05 PM 28.9 °F 18.6 °F 23.0 °F 78% 29.68 in 3.0 mi West 12.7 mph - 0.01 in Snow Light Snow
4:29 PM 28.0 °F 18.1 °F 23.0 °F 81% 29.69 in 1.5 mi West 11.5 mph - 0.01 in Snow Light Snow
4:39 PM 28.0 °F 17.5 °F 23.0 °F 81% 29.70 in 0.8 mi WNW 12.7 mph - 0.01 in Snow Light Snow
4:55 PM 28.9 °F 18.6 °F 21.9 °F 75% 29.73 in 2.5 mi WNW 12.7 mph 20.7 mph 0.01 in Snow Light Snow
5:04 PM 28.9 °F 18.2 °F 23.0 °F 78% 29.70 in 3.0 mi WNW 13.8 mph 19.6 mph 0.00 in Snow Light Snow
5:37 PM 28.0 °F 17.5 °F 23.0 °F 81% 29.70 in 3.0 mi WNW 12.7 mph - 0.00 in Snow Light Snow
5:55 PM 28.9 °F 19.8 °F 23.0 °F 78% 29.74 in 3.0 mi WNW 10.4 mph - 0.00 in Snow Light Snow
6:55 PM 28.0 °F 20.0 °F 21.9 °F 78% 29.75 in 6.0 mi WNW 8.1 mph - 0.00 in Snow Light Snow
7:25 PM 28.0 °F 18.6 °F 21.9 °F 78% 29.74 in 8.0 mi NW 10.4 mph - 0.00 in Snow Light Snow
7:55 PM 27.0 °F 18.0 °F 21.9 °F 81% 29.78 in 7.0 mi WNW 9.2 mph - 0.00 in Snow Light Snow
8:55 PM 27.0 °F 18.0 °F 21.0 °F 78% 29.78 in 10.0 mi NW 9.2 mph - 0.00 in   Overcast
9:55 PM 26.1 °F 18.4 °F 19.9 °F 78% 29.77 in 10.0 mi WNW 6.9 mph - 0.00 in   Overcast
10:55 PM 25.0 °F 18.1 °F 19.0 °F 78% 29.78 in 10.0 mi WNW 5.8 mph - 0.00 in   Mostly Cloudy
11:55 PM 25.0 °F 16.3 °F 19.0 °F 78% 29.79 in 10.0 mi NW 8.1 mph - 0.00 in   Overcast